Time,TemperatureF,DewpointF,PressureIn,WindDirection,WindDirectionDegrees,WindSpeedMPH,WindSpeedGustMPH,Humidity,HourlyPrecipIn,Conditions,Clouds,dailyrainin,SoftwareType,DateUTC
2013-02-12 00:00:00,49.1,45.1,29.74,WNW,300,11.0,21.0,86,0.00,,---,0.36,VWS V14.01,2013-02-12 05:00:00,
2013-02-12 00:01:00,49.0,45.0,29.74,WNW,287,11.0,21.0,86,0.00,,---,0.36,VWS V14.01,2013-02-12 05:01:00,
2013-02-12 00:06:00,48.8,44.5,29.74,WNW,303,10.0,16.0,85,0.00,,---,0.00,VWS V14.01,2013-02-12 05:06:00,
2013-02-12 00:11:00,48.6,44.3,29.75,WNW,298,5.0,16.0,85,0.00,,---,0.00,VWS V14.01,2013-02-12 05:11:00,
2013-02-12 00:16:00,48.3,44.0,29.75,WNW,295,7.0,16.0,85,0.00,,---,0.00,VWS V14.01,2013-02-12 05:16:00,
2013-02-12 00:21:00,48.1,43.8,29.75,NW,305,10.0,16.0,85,0.00,,---,0.00,VWS V14.01,2013-02-12 05:21:00,
2013-02-12 00:26:00,47.9,43.6,29.75,NW,305,6.0,16.0,85,0.00,,---,0.00,VWS V14.01,2013-02-12 05:26:00,
2013-02-12 00:31:00,47.7,43.4,29.75,WNW,299,5.0,16.0,85,0.00,,---,0.00,VWS V14.01,2013-02-12 05:31:00,
2013-02-12 00:36:00,47.4,43.4,29.75,NW,309,6.0,8.0,86,0.00,,---,0.00,VWS V14.01,2013-02-12 05:36:00,
2013-02-12 00:41:00,47.2,43.2,29.76,WNW,288,5.0,13.0,86,0.00,,---,0.00,VWS V14.01,2013-02-12 05:41:00,
2013-02-12 00:46:00,46.9,42.9,29.76,NW,313,7.0,13.0,86,0.00,,---,0.00,VWS V14.01,2013-02-12 05:46:00,
2013-02-12 00:51:00,46.8,43.1,29.76,NW,305,5.0,13.0,87,0.00,,---,0.00,VWS V14.01,2013-02-12 05:51:00,
2013-02-12 00:56:00,46.4,43.0,29.76,WNW,285,4.0,13.0,88,0.00,,---,0.00,VWS V14.01,2013-02-12 05:56:00,
2013-02-12 01:01:00,46.0,42.7,29.76,WNW,284,3.0,13.0,88,0.00,,---,0.00,VWS V14.01,2013-02-12 06:01:00,
2013-02-12 01:06:00,45.8,42.8,29.77,WNW,288,6.0,9.0,89,0.00,,---,0.00,VWS V14.01,2013-02-12 06:06:00,
2013-02-12 01:11:00,45.6,42.5,29.77,WNW,295,5.0,9.0,89,0.00,,---,0.00,VWS V14.01,2013-02-12 06:11:00,
2013-02-12 01:16:00,45.3,42.5,29.77,WNW,284,4.0,9.0,90,0.00,,---,0.00,VWS V14.01,2013-02-12 06:16:00,
2013-02-12 01:21:00,45.2,42.5,29.77,WNW,291,5.0,9.0,90,0.00,,---,0.00,VWS V14.01,2013-02-12 06:21:00,
2013-02-12 01:26:00,45.1,42.1,29.77,West,274,4.0,9.0,89,0.00,,---,0.00,VWS V14.01,2013-02-12 06:26:00,
2013-02-12 01:31:00,45.0,41.7,29.77,West,277,5.0,9.0,88,0.00,,---,0.00,VWS V14.01,2013-02-12 06:31:00,
2013-02-12 01:36:00,45.1,41.2,29.77,WSW,257,8.0,10.0,86,0.00,,---,0.00,VWS V14.01,2013-02-12 06:36:00,
2013-02-12 01:41:00,45.1,40.9,29.78,West,264,7.0,10.0,85,0.00,,---,0.00,VWS V14.01,2013-02-12 06:41:00,
2013-02-12 01:46:00,44.9,40.4,29.78,West,281,7.0,10.0,84,0.00,,---,0.00,VWS V14.01,2013-02-12 06:46:00,
2013-02-12 01:51:00,44.8,40.3,29.78,WNW,285,5.0,10.0,84,0.00,,---,0.00,VWS V14.01,2013-02-12 06:51:00,
2013-02-12 01:56:00,44.8,39.7,29.78,WSW,250,6.0,12.0,82,0.00,,---,0.00,VWS V14.01,2013-02-12 06:56:00,
2013-02-12 02:01:00,44.7,38.9,29.79,WNW,300,10.0,12.0,80,0.00,,---,0.00,VWS V14.01,2013-02-12 07:01:00,
2013-02-12 02:06:00,44.7,38.3,29.79,WNW,298,11.0,11.0,78,0.00,,---,0.00,VWS V14.01,2013-02-12 07:06:00,
2013-02-12 02:11:00,44.7,37.6,29.79,West,281,9.0,15.0,76,0.00,,---,0.00,VWS V14.01,2013-02-12 07:11:00,
2013-02-12 02:16:00,44.6,37.2,29.79,West,262,7.0,15.0,75,0.00,,---,0.00,VWS V14.01,2013-02-12 07:16:00,
2013-02-12 02:21:00,44.6,36.8,29.79,WNW,293,7.0,15.0,74,0.00,,---,0.00,VWS V14.01,2013-02-12 07:21:00,
2013-02-12 02:26:00,44.5,36.4,29.80,West,278,7.0,15.0,73,0.00,,---,0.00,VWS V14.01,2013-02-12 07:26:00,
2013-02-12 02:31:00,44.5,35.7,29.80,West,267,5.0,15.0,71,0.00,,---,0.00,VWS V14.01,2013-02-12 07:31:00,
2013-02-12 02:36:00,44.5,35.0,29.80,WNW,282,8.0,14.0,69,0.00,,---,0.00,VWS V14.01,2013-02-12 07:36:00,
2013-02-12 02:41:00,44.3,35.2,29.80,West,268,6.0,14.0,70,0.00,,---,0.00,VWS V14.01,2013-02-12 07:41:00,
2013-02-12 02:46:00,44.1,34.6,29.80,West,280,6.0,14.0,69,0.00,,---,0.00,VWS V14.01,2013-02-12 07:46:00,
2013-02-12 02:51:00,44.0,34.5,29.80,West,280,11.0,14.0,69,0.00,,---,0.00,VWS V14.01,2013-02-12 07:51:00,
2013-02-12 02:56:00,43.8,33.9,29.80,WNW,287,5.0,14.0,68,0.00,,---,0.00,VWS V14.01,2013-02-12 07:56:00,
2013-02-12 03:01:00,43.7,33.8,29.80,WNW,301,4.0,14.0,68,0.00,,---,0.00,VWS V14.01,2013-02-12 08:01:00,
2013-02-12 03:06:00,43.5,33.7,29.80,West,266,9.0,10.0,68,0.00,,---,0.00,VWS V14.01,2013-02-12 08:06:00,
2013-02-12 03:11:00,43.3,33.5,29.79,WSW,252,8.0,10.0,68,0.00,,---,0.00,VWS V14.01,2013-02-12 08:11:00,
2013-02-12 03:16:00,43.2,33.4,29.80,West,264,4.0,12.0,68,0.00,,---,0.00,VWS V14.01,2013-02-12 08:16:00,
2013-02-12 03:21:00,42.8,33.3,29.81,West,267,5.0,12.0,69,0.00,,---,0.00,VWS V14.01,2013-02-12 08:21:00,
2013-02-12 03:26:00,42.8,33.3,29.81,West,275,5.0,12.0,69,0.00,,---,0.00,VWS V14.01,2013-02-12 08:26:00,
2013-02-12 03:31:00,42.6,33.2,29.80,WNW,283,5.0,12.0,69,0.00,,---,0.00,VWS V14.01,2013-02-12 08:31:00,
2013-02-12 03:36:00,42.5,32.7,29.81,WSW,257,4.0,9.0,68,0.00,,---,0.00,VWS V14.01,2013-02-12 08:36:00,
2013-02-12 03:41:00,42.3,32.9,29.81,West,260,3.0,9.0,69,0.00,,---,0.00,VWS V14.01,2013-02-12 08:41:00,
2013-02-12 03:46:00,42.2,32.8,29.81,West,278,3.0,9.0,69,0.00,,---,0.00,VWS V14.01,2013-02-12 08:46:00,
2013-02-12 03:51:00,42.0,32.6,29.81,WSW,242,2.0,9.0,69,0.00,,---,0.00,VWS V14.01,2013-02-12 08:51:00,
2013-02-12 03:56:00,41.8,32.4,29.81,WSW,245,4.0,9.0,69,0.00,,---,0.00,VWS V14.01,2013-02-12 08:56:00,
2013-02-12 04:01:00,41.6,32.2,29.81,WSW,253,2.0,9.0,69,0.00,,---,0.00,VWS V14.01,2013-02-12 09:01:00,
2013-02-12 04:06:00,41.4,32.4,29.82,WSW,255,3.0,4.0,70,0.00,,---,0.00,VWS V14.01,2013-02-12 09:06:00,
2013-02-12 04:11:00,41.2,32.2,29.81,West,276,2.0,5.0,70,0.00,,---,0.00,VWS V14.01,2013-02-12 09:11:00,
2013-02-12 04:16:00,40.9,31.9,29.81,West,264,3.0,5.0,70,0.00,,---,0.00,VWS V14.01,2013-02-12 09:16:00,
2013-02-12 04:21:00,40.7,32.0,29.82,WSW,238,2.0,5.0,71,0.00,,---,0.00,VWS V14.01,2013-02-12 09:21:00,
2013-02-12 04:26:00,40.3,32.0,29.82,West,262,2.0,5.0,72,0.00,,---,0.00,VWS V14.01,2013-02-12 09:26:00,
2013-02-12 04:31:00,40.2,31.9,29.82,SW,226,3.0,5.0,72,0.00,,---,0.00,VWS V14.01,2013-02-12 09:31:00,
2013-02-12 04:36:00,40.1,31.8,29.82,WSW,245,1.0,4.0,72,0.00,,---,0.00,VWS V14.01,2013-02-12 09:36:00,
2013-02-12 04:41:00,39.9,31.6,29.82,WSW,238,1.0,4.0,72,0.00,,---,0.00,VWS V14.01,2013-02-12 09:41:00,
2013-02-12 04:46:00,39.6,31.7,29.82,WSW,240,4.0,4.0,73,0.00,,---,0.00,VWS V14.01,2013-02-12 09:46:00,
2013-02-12 04:51:00,39.6,31.7,29.82,SW,221,1.0,4.0,73,0.00,,---,0.00,VWS V14.01,2013-02-12 09:51:00,
2013-02-12 04:56:00,39.3,31.7,29.82,SW,233,3.0,4.0,74,0.00,,---,0.00,VWS V14.01,2013-02-12 09:56:00,
2013-02-12 05:01:00,39.1,31.5,29.83,WSW,255,3.0,5.0,74,0.00,,---,0.00,VWS V14.01,2013-02-12 10:01:00,
2013-02-12 05:06:00,39.2,31.6,29.83,SW,226,3.0,6.0,74,0.00,,---,0.00,VWS V14.01,2013-02-12 10:06:00,
2013-02-12 05:11:00,39.0,31.4,29.83,West,270,3.0,6.0,74,0.00,,---,0.00,VWS V14.01,2013-02-12 10:11:00,
2013-02-12 05:16:00,39.0,31.4,29.83,WSW,246,2.0,6.0,74,0.00,,---,0.00,VWS V14.01,2013-02-12 10:16:00,
2013-02-12 05:21:00,39.0,31.1,29.84,West,260,2.0,6.0,73,0.00,,---,0.00,VWS V14.01,2013-02-12 10:21:00,
2013-02-12 05:26:00,39.2,31.3,29.84,West,269,5.0,7.0,73,0.00,,---,0.00,VWS V14.01,2013-02-12 10:26:00,
2013-02-12 05:32:00,39.4,31.1,29.85,WSW,250,6.0,6.0,72,0.00,,---,0.00,VWS V14.01,2013-02-12 10:32:00,
2013-02-12 05:37:00,39.6,31.0,29.85,WSW,237,4.0,7.0,71,0.00,,---,0.00,VWS V14.01,2013-02-12 10:37:00,
2013-02-12 05:42:00,39.6,31.0,29.85,West,278,8.0,8.0,71,0.00,,---,0.00,VWS V14.01,2013-02-12 10:42:00,
2013-02-12 05:47:00,39.9,30.6,29.85,WNW,288,5.0,11.0,69,0.00,,---,0.00,VWS V14.01,2013-02-12 10:47:00,
2013-02-12 05:52:00,39.9,30.6,29.85,West,281,4.0,11.0,69,0.00,,---,0.00,VWS V14.01,2013-02-12 10:52:00,
2013-02-12 05:57:00,40.1,30.4,29.84,WNW,285,5.0,11.0,68,0.00,,---,0.00,VWS V14.01,2013-02-12 10:57:00,
2013-02-12 06:02:00,40.1,30.0,29.85,West,268,9.0,12.0,67,0.00,,---,0.00,VWS V14.01,2013-02-12 11:02:00,
2013-02-12 06:07:00,40.1,30.0,29.85,West,269,5.0,12.0,67,0.00,,---,0.00,VWS V14.01,2013-02-12 11:07:00,
2013-02-12 06:12:00,40.3,29.9,29.85,WNW,285,7.0,12.0,66,0.00,,---,0.00,VWS V14.01,2013-02-12 11:12:00,
2013-02-12 06:17:00,40.4,29.6,29.85,WNW,285,7.0,12.0,65,0.00,,---,0.00,VWS V14.01,2013-02-12 11:17:00,
2013-02-12 06:22:00,40.7,29.1,29.85,WNW,299,7.0,14.0,63,0.00,,---,0.00,VWS V14.01,2013-02-12 11:22:00,
2013-02-12 06:27:00,40.9,28.5,29.85,WNW,303,6.0,16.0,61,0.00,,---,0.00,VWS V14.01,2013-02-12 11:27:00,
2013-02-12 06:32:00,40.8,28.4,29.85,WNW,291,5.0,11.0,61,0.00,,---,0.00,VWS V14.01,2013-02-12 11:32:00,
2013-02-12 06:37:00,41.0,27.8,29.85,NW,306,11.0,19.0,59,0.00,,---,0.00,VWS V14.01,2013-02-12 11:37:00,
2013-02-12 06:42:00,41.1,27.9,29.86,WSW,248,8.0,19.0,59,0.00,,---,0.00,VWS V14.01,2013-02-12 11:42:00,
2013-02-12 06:47:00,41.1,27.9,29.86,West,277,12.0,19.0,59,0.00,,---,0.00,VWS V14.01,2013-02-12 11:47:00,
2013-02-12 06:52:00,41.4,27.3,29.86,WNW,298,10.0,23.0,57,0.00,,---,0.00,VWS V14.01,2013-02-12 11:52:00,
2013-02-12 06:57:00,41.5,27.4,29.86,NW,304,13.0,23.0,57,0.00,,---,0.00,VWS V14.01,2013-02-12 11:57:00,
2013-02-12 07:02:00,41.6,27.5,29.86,NW,305,7.0,9.0,57,0.00,,---,0.00,VWS V14.01,2013-02-12 12:02:00,
2013-02-12 07:07:00,41.6,27.1,29.87,WNW,298,7.0,16.0,56,0.00,,---,0.00,VWS V14.01,2013-02-12 12:07:00,
2013-02-12 07:12:00,41.6,27.1,29.87,SW,229,12.0,16.0,56,0.00,,---,0.00,VWS V14.01,2013-02-12 12:12:00,
2013-02-12 07:17:00,41.5,27.4,29.87,West,271,5.0,16.0,57,0.00,,---,0.00,VWS V14.01,2013-02-12 12:17:00,
2013-02-12 07:22:00,41.4,27.3,29.87,West,268,12.0,16.0,57,0.00,,---,0.00,VWS V14.01,2013-02-12 12:22:00,
2013-02-12 07:27:00,41.5,27.0,29.87,WNW,294,16.0,21.0,56,0.00,,---,0.00,VWS V14.01,2013-02-12 12:27:00,
2013-02-12 07:32:00,41.8,27.3,29.88,WNW,300,16.0,18.0,56,0.00,,---,0.00,VWS V14.01,2013-02-12 12:32:00,
2013-02-12 07:37:00,42.0,27.5,29.88,West,263,13.0,18.0,56,0.00,,---,0.00,VWS V14.01,2013-02-12 12:37:00,
2013-02-12 07:42:00,42.0,27.5,29.88,WNW,284,12.0,21.0,56,0.00,,---,0.00,VWS V14.01,2013-02-12 12:42:00,
2013-02-12 07:47:00,42.1,27.1,29.89,NW,306,8.0,21.0,55,0.00,,---,0.00,VWS V14.01,2013-02-12 12:47:00,
2013-02-12 07:52:00,42.2,27.6,29.89,NW,304,13.0,21.0,56,0.00,,---,0.00,VWS V14.01,2013-02-12 12:52:00,
2013-02-12 07:57:00,42.2,27.2,29.89,WNW,297,11.0,21.0,55,0.00,,---,0.00,VWS V14.01,2013-02-12 12:57:00,
2013-02-12 08:02:00,42.4,27.0,29.89,WNW,293,17.0,20.0,54,0.00,,---,0.00,VWS V14.01,2013-02-12 13:02:00,
2013-02-12 08:07:00,42.6,27.1,29.89,WNW,297,12.0,24.0,54,0.00,,---,0.00,VWS V14.01,2013-02-12 13:07:00,
2013-02-12 08:12:00,42.8,27.3,29.89,WNW,293,17.0,24.0,54,0.00,,---,0.00,VWS V14.01,2013-02-12 13:12:00,
2013-02-12 08:17:00,42.8,27.3,29.89,WNW,297,18.0,24.0,54,0.00,,---,0.00,VWS V14.01,2013-02-12 13:17:00,
2013-02-12 08:22:00,43.0,27.0,29.89,WNW,284,16.0,24.0,53,0.00,,---,0.00,VWS V14.01,2013-02-12 13:22:00,
2013-02-12 08:27:00,43.1,26.7,29.89,WNW,298,19.0,29.0,52,0.00,,---,0.00,VWS V14.01,2013-02-12 13:27:00,
2013-02-12 08:32:00,43.2,27.7,29.89,WNW,284,15.0,19.0,54,0.00,,---,0.00,VWS V14.01,2013-02-12 13:32:00,
2013-02-12 08:37:00,43.3,27.3,29.90,WNW,293,22.0,27.0,53,0.00,,---,0.00,VWS V14.01,2013-02-12 13:37:00,
2013-02-12 08:42:00,43.4,27.9,29.90,WNW,295,13.0,27.0,54,0.00,,---,0.00,VWS V14.01,2013-02-12 13:42:00,
2013-02-12 08:47:00,43.4,27.9,29.90,WNW,282,19.0,27.0,54,0.00,,---,0.00,VWS V14.01,2013-02-12 13:47:00,
2013-02-12 08:52:00,43.5,28.4,29.90,WNW,288,14.0,27.0,55,0.00,,---,0.00,VWS V14.01,2013-02-12 13:52:00,
2013-02-12 08:57:00,43.6,28.1,29.90,West,278,13.0,27.0,54,0.00,,---,0.00,VWS V14.01,2013-02-12 13:57:00,
2013-02-12 09:02:00,43.6,28.1,29.90,WNW,282,16.0,17.0,54,0.00,,---,0.00,VWS V14.01,2013-02-12 14:02:00,
2013-02-12 09:07:00,43.6,27.6,29.91,WNW,293,16.0,24.0,53,0.00,,---,0.00,VWS V14.01,2013-02-12 14:07:00,
2013-02-12 09:12:00,43.8,28.7,29.90,WNW,293,22.0,24.0,55,0.00,,---,0.00,VWS V14.01,2013-02-12 14:12:00,
2013-02-12 09:17:00,43.9,28.4,29.90,WNW,291,16.0,26.0,54,0.00,,---,0.00,VWS V14.01,2013-02-12 14:17:00,
2013-02-12 09:22:00,43.9,27.9,29.90,West,263,14.0,27.0,53,0.00,,---,0.00,VWS V14.01,2013-02-12 14:22:00,
2013-02-12 09:27:00,43.9,27.9,29.90,WNW,290,20.0,28.0,53,0.00,,---,0.00,VWS V14.01,2013-02-12 14:27:00,
2013-02-12 09:32:00,44.1,27.6,29.90,WNW,288,22.0,22.0,52,0.00,,---,0.00,VWS V14.01,2013-02-12 14:32:00,
2013-02-12 09:37:00,44.0,27.5,29.90,West,259,13.0,28.0,52,0.00,,---,0.00,VWS V14.01,2013-02-12 14:37:00,
2013-02-12 09:42:00,44.2,27.7,29.90,WNW,291,24.0,28.0,52,0.00,,---,0.00,VWS V14.01,2013-02-12 14:42:00,
2013-02-12 09:47:00,44.1,27.1,29.90,WNW,284,21.0,32.0,51,0.00,,---,0.00,VWS V14.01,2013-02-12 14:47:00,
2013-02-12 09:52:00,44.3,26.9,29.90,WNW,287,17.0,32.0,50,0.00,,---,0.00,VWS V14.01,2013-02-12 14:52:00,
2013-02-12 09:57:00,44.2,26.3,29.90,WSW,246,20.0,32.0,49,0.00,,---,0.00,VWS V14.01,2013-02-12 14:57:00,
2013-02-12 10:02:00,44.4,26.9,29.90,WSW,250,8.0,13.0,50,0.00,,---,0.00,VWS V14.01,2013-02-12 15:02:00,
2013-02-12 10:07:00,44.5,27.0,29.90,WNW,297,14.0,23.0,50,0.00,,---,0.00,VWS V14.01,2013-02-12 15:07:00,
2013-02-12 10:12:00,44.5,26.5,29.90,WNW,293,20.0,24.0,49,0.00,,---,0.00,VWS V14.01,2013-02-12 15:12:00,
2013-02-12 10:17:00,44.4,26.9,29.90,WNW,300,24.0,28.0,50,0.00,,---,0.00,VWS V14.01,2013-02-12 15:17:00,
2013-02-12 10:22:00,44.3,25.9,29.90,WNW,297,25.0,29.0,48,0.00,,---,0.00,VWS V14.01,2013-02-12 15:22:00,
2013-02-12 10:27:00,44.5,27.0,29.90,West,275,18.0,29.0,50,0.00,,---,0.00,VWS V14.01,2013-02-12 15:27:00,
2013-02-12 10:32:00,44.6,26.6,29.90,NW,305,12.0,18.0,49,0.00,,---,0.00,VWS V14.01,2013-02-12 15:32:00,
2013-02-12 10:37:00,45.1,27.1,29.90,WSW,248,14.0,24.0,49,0.00,,---,0.00,VWS V14.01,2013-02-12 15:37:00,
2013-02-12 10:42:00,45.1,27.1,29.90,West,276,20.0,29.0,49,0.00,,---,0.00,VWS V14.01,2013-02-12 15:42:00,
2013-02-12 10:47:00,45.1,26.6,29.91,WNW,293,21.0,29.0,48,0.00,,---,0.00,VWS V14.01,2013-02-12 15:47:00,
2013-02-12 10:52:00,45.2,27.2,29.90,WNW,288,14.0,31.0,49,0.00,,---,0.00,VWS V14.01,2013-02-12 15:52:00,
2013-02-12 10:57:00,45.4,27.4,29.91,West,273,11.0,31.0,49,0.00,,---,0.00,VWS V14.01,2013-02-12 15:57:00,
2013-02-12 11:02:00,45.6,27.1,29.91,NW,304,17.0,24.0,48,0.00,,---,0.00,VWS V14.01,2013-02-12 16:02:00,
2013-02-12 11:07:00,45.6,26.5,29.91,West,278,20.0,24.0,47,0.00,,---,0.00,VWS V14.01,2013-02-12 16:07:00,
2013-02-12 11:12:00,45.4,26.9,29.91,WNW,290,14.0,29.0,48,0.00,,---,0.00,VWS V14.01,2013-02-12 16:12:00,
2013-02-12 11:17:00,45.3,26.8,29.91,West,280,18.0,29.0,48,0.00,,---,0.00,VWS V14.01,2013-02-12 16:17:00,
2013-02-12 11:22:00,45.6,27.1,29.91,NW,311,13.0,29.0,48,0.00,,---,0.00,VWS V14.01,2013-02-12 16:22:00,
2013-02-12 11:27:00,45.7,27.6,29.91,WNW,284,18.0,29.0,49,0.00,,---,0.00,VWS V14.01,2013-02-12 16:27:00,
2013-02-12 11:32:00,45.9,26.8,29.91,WNW,301,16.0,24.0,47,0.00,,---,0.00,VWS V14.01,2013-02-12 16:32:00,
2013-02-12 11:37:00,45.9,26.3,29.92,WSW,255,13.0,26.0,46,0.00,,---,0.00,VWS V14.01,2013-02-12 16:37:00,
2013-02-12 11:42:00,45.7,27.1,29.92,WNW,289,16.0,26.0,48,0.00,,---,0.00,VWS V14.01,2013-02-12 16:42:00,
2013-02-12 11:47:00,45.7,26.6,29.92,WNW,288,18.0,26.0,47,0.00,,---,0.00,VWS V14.01,2013-02-12 16:47:00,
2013-02-12 11:52:00,45.5,27.5,29.92,WNW,283,21.0,26.0,49,0.00,,---,0.00,VWS V14.01,2013-02-12 16:52:00,
2013-02-12 11:57:00,45.7,27.1,29.92,WNW,284,14.0,26.0,48,0.00,,---,0.00,VWS V14.01,2013-02-12 16:57:00,
2013-02-12 12:02:00,45.8,27.2,29.93,West,262,17.0,23.0,48,0.00,,---,0.00,VWS V14.01,2013-02-12 17:02:00,
2013-02-12 12:07:00,45.8,27.2,29.92,WNW,299,14.0,23.0,48,0.00,,---,0.00,VWS V14.01,2013-02-12 17:07:00,
2013-02-12 12:12:00,46.0,27.4,29.92,West,270,15.0,24.0,48,0.00,,---,0.00,VWS V14.01,2013-02-12 17:12:00,
2013-02-12 12:17:00,46.0,27.4,29.92,West,269,12.0,24.0,48,0.00,,---,0.00,VWS V14.01,2013-02-12 17:17:00,
2013-02-12 12:22:00,46.1,27.5,29.92,WNW,288,15.0,24.0,48,0.00,,---,0.00,VWS V14.01,2013-02-12 17:22:00,
2013-02-12 12:27:00,46.1,27.5,29.92,WNW,297,18.0,24.0,48,0.00,,---,0.00,VWS V14.01,2013-02-12 17:27:00,
2013-02-12 12:33:00,45.7,27.1,29.92,WNW,288,17.0,21.0,48,0.00,,---,0.00,VWS V14.01,2013-02-12 17:33:00,
2013-02-12 12:38:00,45.9,27.3,29.92,NW,305,15.0,21.0,48,0.00,,---,0.00,VWS V14.01,2013-02-12 17:38:00,
2013-02-12 12:43:00,46.0,27.9,29.91,WNW,282,12.0,22.0,49,0.00,,---,0.00,VWS V14.01,2013-02-12 17:43:00,
2013-02-12 12:47:00,45.9,27.8,29.91,WNW,282,14.0,24.0,49,0.00,,---,0.00,VWS V14.01,2013-02-12 17:47:00,
2013-02-12 12:52:00,45.8,27.7,29.91,WSW,246,10.0,24.0,49,0.00,,---,0.00,VWS V14.01,2013-02-12 17:52:00,
2013-02-12 12:57:00,45.8,28.2,29.91,WNW,287,13.0,24.0,50,0.00,,---,0.00,VWS V14.01,2013-02-12 17:57:00,
2013-02-12 13:02:00,46.0,27.9,29.91,WNW,287,15.0,21.0,49,0.00,,---,0.00,VWS V14.01,2013-02-12 18:02:00,
2013-02-12 13:07:00,46.0,27.9,29.90,NW,308,11.0,27.0,49,0.00,,---,0.00,VWS V14.01,2013-02-12 18:07:00,
2013-02-12 13:13:00,46.0,28.4,29.91,WNW,297,18.0,27.0,50,0.00,,---,0.00,VWS V14.01,2013-02-12 18:13:00,
2013-02-12 13:18:00,46.2,28.6,29.91,WNW,293,11.0,27.0,50,0.00,,---,0.00,VWS V14.01,2013-02-12 18:18:00,
2013-02-12 13:23:00,46.3,29.6,29.91,West,281,15.0,27.0,52,0.00,,---,0.00,VWS V14.01,2013-02-12 18:23:00,
2013-02-12 13:28:00,46.2,28.1,29.91,WNW,293,8.0,27.0,49,0.00,,---,0.00,VWS V14.01,2013-02-12 18:28:00,
2013-02-12 13:33:00,46.4,28.8,29.91,WNW,298,11.0,11.0,50,0.00,,---,0.00,VWS V14.01,2013-02-12 18:33:00,
2013-02-12 13:38:00,46.2,27.6,29.91,WNW,288,12.0,24.0,48,0.00,,---,0.00,VWS V14.01,2013-02-12 18:38:00,
2013-02-12 13:43:00,46.3,28.2,29.91,West,281,15.0,24.0,49,0.00,,---,0.00,VWS V14.01,2013-02-12 18:43:00,
2013-02-12 13:48:00,46.3,28.2,29.90,WNW,288,20.0,24.0,49,0.00,,---,0.00,VWS V14.01,2013-02-12 18:48:00,
2013-02-12 13:53:00,46.3,28.2,29.90,WNW,284,15.0,24.0,49,0.00,,---,0.00,VWS V14.01,2013-02-12 18:53:00,
2013-02-12 13:58:00,46.4,28.8,29.91,WNW,297,16.0,24.0,50,0.00,,---,0.00,VWS V14.01,2013-02-12 18:58:00,
2013-02-12 14:03:00,46.4,28.3,29.90,West,262,12.0,14.0,49,0.00,,---,0.00,VWS V14.01,2013-02-12 19:03:00,
2013-02-12 14:08:00,46.8,28.2,29.91,West,281,11.0,21.0,48,0.00,,---,0.00,VWS V14.01,2013-02-12 19:08:00,
2013-02-12 14:13:00,46.9,28.8,29.91,WNW,283,14.0,22.0,49,0.00,,---,0.00,VWS V14.01,2013-02-12 19:13:00,
2013-02-12 14:18:00,46.8,28.2,29.91,WNW,289,11.0,22.0,48,0.00,,---,0.00,VWS V14.01,2013-02-12 19:18:00,
2013-02-12 14:23:00,47.1,28.4,29.90,West,259,5.0,22.0,48,0.00,,---,0.00,VWS V14.01,2013-02-12 19:23:00,
2013-02-12 14:28:00,47.2,28.5,29.90,WNW,287,9.0,23.0,48,0.00,,---,0.00,VWS V14.01,2013-02-12 19:28:00,
2013-02-12 14:33:00,47.0,28.3,29.90,West,281,10.0,18.0,48,0.00,,---,0.00,VWS V14.01,2013-02-12 19:33:00,
2013-02-12 14:38:00,47.2,28.5,29.90,NW,304,11.0,18.0,48,0.00,,---,0.00,VWS V14.01,2013-02-12 19:38:00,
2013-02-12 14:43:00,47.1,28.4,29.90,WNW,283,9.0,18.0,48,0.00,,---,0.00,VWS V14.01,2013-02-12 19:43:00,
2013-02-12 14:48:00,47.0,28.9,29.89,WNW,282,9.0,21.0,49,0.00,,---,0.00,VWS V14.01,2013-02-12 19:48:00,
2013-02-12 14:53:00,47.1,28.4,29.89,WNW,285,13.0,21.0,48,0.00,,---,0.00,VWS V14.01,2013-02-12 19:53:00,
2013-02-12 14:58:00,47.0,28.3,29.89,West,260,12.0,21.0,48,0.00,,---,0.00,VWS V14.01,2013-02-12 19:58:00,
2013-02-12 15:03:00,47.0,28.3,29.89,West,262,13.0,14.0,48,0.00,,---,0.00,VWS V14.01,2013-02-12 20:03:00,
2013-02-12 15:08:00,47.0,28.9,29.89,WNW,292,5.0,19.0,49,0.00,,---,0.00,VWS V14.01,2013-02-12 20:08:00,
2013-02-12 15:13:00,47.0,28.3,29.88,WNW,284,7.0,19.0,48,0.00,,---,0.00,VWS V14.01,2013-02-12 20:13:00,
2013-02-12 15:18:00,46.8,28.2,29.88,WNW,295,7.0,19.0,48,0.00,,---,0.00,VWS V14.01,2013-02-12 20:18:00,
2013-02-12 15:23:00,46.7,29.1,29.88,WNW,293,18.0,19.0,50,0.00,,---,0.00,VWS V14.01,2013-02-12 20:23:00,
2013-02-12 15:28:00,46.7,28.1,29.89,WNW,291,10.0,19.0,48,0.00,,---,0.00,VWS V14.01,2013-02-12 20:28:00,
2013-02-12 15:33:00,46.6,28.5,29.88,WNW,284,11.0,14.0,49,0.00,,---,0.00,VWS V14.01,2013-02-12 20:33:00,
2013-02-12 15:38:00,46.6,28.5,29.89,West,277,9.0,18.0,49,0.00,,---,0.00,VWS V14.01,2013-02-12 20:38:00,
2013-02-12 15:43:00,46.7,28.1,29.88,WNW,298,9.0,19.0,48,0.00,,---,0.00,VWS V14.01,2013-02-12 20:43:00,
2013-02-12 15:48:00,46.4,28.3,29.87,WNW,301,7.0,19.0,49,0.00,,---,0.00,VWS V14.01,2013-02-12 20:48:00,
2013-02-12 15:53:00,46.4,27.8,29.87,WNW,288,9.0,19.0,48,0.00,,---,0.00,VWS V14.01,2013-02-12 20:53:00,
2013-02-12 15:58:00,46.4,28.3,29.86,WNW,299,8.0,19.0,49,0.00,,---,0.00,VWS V14.01,2013-02-12 20:58:00,
2013-02-12 16:03:00,46.4,27.8,29.85,WNW,289,6.0,12.0,48,0.00,,---,0.00,VWS V14.01,2013-02-12 21:03:00,
2013-02-12 16:08:00,46.2,28.1,29.84,NW,321,7.0,14.0,49,0.00,,---,0.00,VWS V14.01,2013-02-12 21:08:00,
2013-02-12 16:13:00,46.1,28.0,29.84,NNW,329,6.0,14.0,49,0.00,,---,0.00,VWS V14.01,2013-02-12 21:13:00,
2013-02-12 16:18:00,46.0,27.9,29.85,WNW,295,11.0,16.0,49,0.00,,---,0.00,VWS V14.01,2013-02-12 21:18:00,
2013-02-12 16:23:00,45.8,27.7,29.84,WNW,294,7.0,16.0,49,0.00,,---,0.00,VWS V14.01,2013-02-12 21:23:00,
2013-02-12 16:28:00,45.8,27.7,29.86,NW,305,6.0,16.0,49,0.00,,---,0.00,VWS V14.01,2013-02-12 21:28:00,
2013-02-12 16:33:00,45.8,27.7,29.87,WNW,296,11.0,11.0,49,0.00,,---,0.00,VWS V14.01,2013-02-12 21:33:00,
2013-02-12 16:38:00,45.7,27.6,29.89,WNW,294,6.0,15.0,49,0.00,,---,0.00,VWS V14.01,2013-02-12 21:38:00,
2013-02-12 16:43:00,45.5,28.0,29.88,NW,314,6.0,15.0,50,0.00,,---,0.00,VWS V14.01,2013-02-12 21:43:00,
2013-02-12 16:48:00,45.3,27.8,29.89,West,281,14.0,16.0,50,0.00,,---,0.00,VWS V14.01,2013-02-12 21:48:00,
2013-02-12 16:53:00,45.0,27.5,29.90,West,277,8.0,16.0,50,0.00,,---,0.00,VWS V14.01,2013-02-12 21:53:00,
2013-02-12 16:58:00,45.0,27.0,29.92,West,260,8.0,16.0,49,0.00,,---,0.00,VWS V14.01,2013-02-12 21:58:00,
2013-02-12 17:03:00,44.9,28.4,29.92,WNW,284,5.0,13.0,52,0.00,,---,0.00,VWS V14.01,2013-02-12 22:03:00,
2013-02-12 17:08:00,44.6,27.6,29.93,WNW,287,9.0,13.0,51,0.00,,---,0.00,VWS V14.01,2013-02-12 22:08:00,
2013-02-12 17:13:00,44.2,28.2,29.92,West,280,7.0,13.0,53,0.00,,---,0.00,VWS V14.01,2013-02-12 22:13:00,
2013-02-12 17:18:00,43.9,27.9,29.94,West,281,5.0,14.0,53,0.00,,---,0.00,VWS V14.01,2013-02-12 22:18:00,
2013-02-12 17:23:00,43.6,28.1,29.94,West,262,5.0,14.0,54,0.00,,---,0.00,VWS V14.01,2013-02-12 22:23:00,
2013-02-12 17:28:00,43.4,27.9,29.95,West,275,3.0,14.0,54,0.00,,---,0.00,VWS V14.01,2013-02-12 22:28:00,
2013-02-12 17:33:00,43.2,27.7,29.96,West,271,5.0,7.0,54,0.00,,---,0.00,VWS V14.01,2013-02-12 22:33:00,
2013-02-12 17:38:00,43.1,27.6,29.96,WNW,285,7.0,10.0,54,0.00,,---,0.00,VWS V14.01,2013-02-12 22:38:00,
2013-02-12 17:43:00,43.0,28.0,29.95,WNW,297,8.0,12.0,55,0.00,,---,0.00,VWS V14.01,2013-02-12 22:43:00,
2013-02-12 17:48:00,42.9,27.9,29.97,WNW,288,8.0,12.0,55,0.00,,---,0.00,VWS V14.01,2013-02-12 22:48:00,
2013-02-12 17:53:00,42.7,27.7,29.97,WNW,284,5.0,12.0,55,0.00,,---,0.00,VWS V14.01,2013-02-12 22:53:00,
2013-02-12 17:58:00,42.5,27.9,29.96,WNW,297,3.0,12.0,56,0.00,,---,0.00,VWS V14.01,2013-02-12 22:58:00,
2013-02-12 18:03:00,42.4,27.8,29.97,WNW,287,5.0,7.0,56,0.00,,---,0.00,VWS V14.01,2013-02-12 23:03:00,
2013-02-12 18:08:00,42.2,28.1,29.97,WNW,290,2.0,7.0,57,0.00,,---,0.00,VWS V14.01,2013-02-12 23:08:00,
2013-02-12 18:13:00,41.9,28.2,29.97,WSW,257,3.0,7.0,58,0.00,,---,0.00,VWS V14.01,2013-02-12 23:13:00,
2013-02-12 18:18:00,41.8,27.7,29.97,WNW,297,6.0,7.0,57,0.00,,---,0.00,VWS V14.01,2013-02-12 23:18:00,
2013-02-12 18:23:00,41.8,28.1,29.97,WNW,288,4.0,9.0,58,0.00,,---,0.00,VWS V14.01,2013-02-12 23:23:00,
2013-02-12 18:28:00,41.5,27.8,29.97,WNW,291,2.0,9.0,58,0.00,,---,0.00,VWS V14.01,2013-02-12 23:28:00,
2013-02-12 18:33:00,41.3,28.5,29.98,WNW,288,2.0,3.0,60,0.00,,---,0.00,VWS V14.01,2013-02-12 23:33:00,
2013-02-12 18:38:00,41.1,27.9,29.97,NW,305,3.0,5.0,59,0.00,,---,0.00,VWS V14.01,2013-02-12 23:38:00,
2013-02-12 18:44:00,41.1,27.5,29.98,WNW,293,4.0,7.0,58,0.00,,---,0.00,VWS V14.01,2013-02-12 23:44:00,
2013-02-12 18:49:00,40.9,27.7,29.98,WNW,295,2.0,7.0,59,0.00,,---,0.00,VWS V14.01,2013-02-12 23:49:00,
2013-02-12 18:54:00,40.8,28.0,29.99,NW,314,4.0,7.0,60,0.00,,---,0.00,VWS V14.01,2013-02-12 23:54:00,
2013-02-12 18:59:00,40.6,27.8,29.99,WNW,298,3.0,7.0,60,0.00,,---,0.00,VWS V14.01,2013-02-12 23:59:00,
2013-02-12 19:03:00,40.4,27.6,29.98,WNW,297,4.0,5.0,60,0.00,,---,0.00,VWS V14.01,2013-02-13 00:03:00,
2013-02-12 19:09:00,40.3,27.5,29.98,WNW,300,2.0,6.0,60,0.00,,---,0.00,VWS V14.01,2013-02-13 00:09:00,
2013-02-12 19:14:00,40.1,27.8,29.98,NNW,337,2.0,6.0,61,0.00,,---,0.00,VWS V14.01,2013-02-13 00:14:00,
2013-02-12 19:19:00,39.9,27.6,29.98,NW,311,4.0,6.0,61,0.00,,---,0.00,VWS V14.01,2013-02-13 00:19:00,
2013-02-12 19:24:00,39.8,27.5,29.98,NNW,328,2.0,6.0,61,0.00,,---,0.00,VWS V14.01,2013-02-13 00:24:00,
2013-02-12 19:29:00,39.7,27.4,29.98,WNW,299,4.0,6.0,61,0.00,,---,0.00,VWS V14.01,2013-02-13 00:29:00,
2013-02-12 19:34:00,39.6,27.3,29.98,WNW,303,2.0,4.0,61,0.00,,---,0.00,VWS V14.01,2013-02-13 00:34:00,
2013-02-12 19:39:00,39.4,27.1,29.98,NW,305,2.0,4.0,61,0.00,,---,0.00,VWS V14.01,2013-02-13 00:39:00,
2013-02-12 19:44:00,39.3,27.4,29.98,WNW,300,2.0,4.0,62,0.00,,---,0.00,VWS V14.01,2013-02-13 00:44:00,
2013-02-12 19:49:00,39.2,27.3,29.98,North,354,4.0,4.0,62,0.00,,---,0.00,VWS V14.01,2013-02-13 00:49:00,
2013-02-12 19:54:00,39.1,27.2,29.98,West,278,2.0,5.0,62,0.00,,---,0.00,VWS V14.01,2013-02-13 00:54:00,
2013-02-12 19:59:00,38.9,27.4,29.98,NW,304,2.0,5.0,63,0.00,,---,0.00,VWS V14.01,2013-02-13 00:59:00,
2013-02-12 20:04:00,38.7,27.2,29.98,West,275,2.0,2.0,63,0.00,,---,0.00,VWS V14.01,2013-02-13 01:04:00,
2013-02-12 20:09:00,38.6,27.1,29.97,WNW,285,2.0,3.0,63,0.00,,---,0.00,VWS V14.01,2013-02-13 01:09:00,
2013-02-12 20:14:00,38.4,27.3,29.97,WNW,287,2.0,3.0,64,0.00,,---,0.00,VWS V14.01,2013-02-13 01:14:00,
2013-02-12 20:19:00,38.3,26.8,29.97,WNW,290,2.0,3.0,63,0.00,,---,0.00,VWS V14.01,2013-02-13 01:19:00,
2013-02-12 20:24:00,38.2,26.7,29.97,West,270,0.0,3.0,63,0.00,,---,0.00,VWS V14.01,2013-02-13 01:24:00,
2013-02-12 20:29:00,37.9,26.8,29.96,West,276,0.0,3.0,64,0.00,,---,0.00,VWS V14.01,2013-02-13 01:29:00,
2013-02-12 20:34:00,37.7,27.0,29.96,West,273,1.0,1.0,65,0.00,,---,0.00,VWS V14.01,2013-02-13 01:34:00,
2013-02-12 20:39:00,37.5,26.8,29.96,NW,322,0.0,1.0,65,0.00,,---,0.00,VWS V14.01,2013-02-13 01:39:00,
2013-02-12 20:44:00,37.3,26.6,29.96,WNW,291,1.0,2.0,65,0.00,,---,0.00,VWS V14.01,2013-02-13 01:44:00,
2013-02-12 20:49:00,37.3,27.0,29.96,WNW,291,0.0,2.0,66,0.00,,---,0.00,VWS V14.01,2013-02-13 01:49:00,
2013-02-12 20:54:00,37.0,26.7,29.96,SSW,211,1.0,2.0,66,0.00,,---,0.00,VWS V14.01,2013-02-13 01:54:00,
2013-02-12 20:59:00,36.8,26.5,29.96,SW,231,0.0,2.0,66,0.00,,---,0.00,VWS V14.01,2013-02-13 01:59:00,
2013-02-12 21:04:00,36.7,26.4,29.96,SW,224,1.0,1.0,66,0.00,,---,0.00,VWS V14.01,2013-02-13 02:04:00,
2013-02-12 21:09:00,36.5,26.2,29.96,SW,224,1.0,2.0,66,0.00,,---,0.00,VWS V14.01,2013-02-13 02:09:00,
2013-02-12 21:14:00,36.5,26.6,29.96,SSW,200,1.0,2.0,67,0.00,,---,0.00,VWS V14.01,2013-02-13 02:14:00,
2013-02-12 21:19:00,36.3,26.4,29.96,SSW,208,1.0,2.0,67,0.00,,---,0.00,VWS V14.01,2013-02-13 02:19:00,
2013-02-12 21:24:00,36.2,26.7,29.96,SW,224,1.0,3.0,68,0.00,,---,0.00,VWS V14.01,2013-02-13 02:24:00,
2013-02-12 21:29:00,36.0,26.8,29.95,SSW,211,2.0,3.0,69,0.00,,---,0.00,VWS V14.01,2013-02-13 02:29:00,
2013-02-12 21:34:00,35.9,26.7,29.95,SW,215,1.0,2.0,69,0.00,,---,0.00,VWS V14.01,2013-02-13 02:34:00,
2013-02-12 21:39:00,35.7,26.9,29.95,SW,231,1.0,2.0,70,0.00,,---,0.00,VWS V14.01,2013-02-13 02:39:00,
2013-02-12 21:44:00,35.6,26.8,29.95,SW,214,2.0,3.0,70,0.00,,---,0.00,VWS V14.01,2013-02-13 02:44:00,
2013-02-12 21:49:00,35.6,26.8,29.95,SSW,200,2.0,4.0,70,0.00,,---,0.00,VWS V14.01,2013-02-13 02:49:00,
2013-02-12 21:54:00,35.4,27.0,29.95,SSW,207,2.0,4.0,71,0.00,,---,0.00,VWS V14.01,2013-02-13 02:54:00,
2013-02-12 21:59:00,35.3,27.2,29.96,SW,222,2.0,4.0,72,0.00,,---,0.00,VWS V14.01,2013-02-13 02:59:00,
2013-02-12 22:04:00,35.1,27.0,29.96,WSW,240,1.0,3.0,72,0.00,,---,0.00,VWS V14.01,2013-02-13 03:04:00,
2013-02-12 22:09:00,34.9,27.1,29.96,SW,236,2.0,4.0,73,0.00,,---,0.00,VWS V14.01,2013-02-13 03:09:00,
2013-02-12 22:14:00,34.9,27.1,29.96,SW,233,2.0,4.0,73,0.00,,---,0.00,VWS V14.01,2013-02-13 03:14:00,
2013-02-12 22:19:00,34.8,27.4,29.95,WSW,243,0.0,4.0,74,0.00,,---,0.00,VWS V14.01,2013-02-13 03:19:00,
2013-02-12 22:24:00,34.7,27.0,29.95,SW,223,2.0,4.0,73,0.00,,---,0.00,VWS V14.01,2013-02-13 03:24:00,
2013-02-12 22:29:00,34.6,27.2,29.95,SSW,210,1.0,4.0,74,0.00,,---,0.00,VWS V14.01,2013-02-13 03:29:00,
2013-02-12 22:34:00,34.5,27.1,29.95,SW,232,2.0,4.0,74,0.00,,---,0.00,VWS V14.01,2013-02-13 03:34:00,
2013-02-12 22:39:00,34.3,27.2,29.95,West,281,2.0,4.0,75,0.00,,---,0.00,VWS V14.01,2013-02-13 03:39:00,
2013-02-12 22:44:00,33.9,27.1,29.95,West,270,1.0,4.0,76,0.00,,---,0.00,VWS V14.01,2013-02-13 03:44:00,
2013-02-12 22:49:00,33.8,27.0,29.95,West,264,2.0,4.0,76,0.00,,---,0.00,VWS V14.01,2013-02-13 03:49:00,
2013-02-12 22:54:00,33.8,26.7,29.96,WSW,239,2.0,4.0,75,0.00,,---,0.00,VWS V14.01,2013-02-13 03:54:00,
2013-02-12 22:59:00,33.9,26.8,29.96,SW,218,1.0,4.0,75,0.00,,---,0.00,VWS V14.01,2013-02-13 03:59:00,
2013-02-12 23:04:00,34.0,26.6,29.97,West,274,2.0,2.0,74,0.00,,---,0.00,VWS V14.01,2013-02-13 04:04:00,
2013-02-12 23:09:00,34.0,26.6,29.96,WNW,284,2.0,3.0,74,0.00,,---,0.00,VWS V14.01,2013-02-13 04:09:00,
2013-02-12 23:14:00,33.5,26.4,29.96,WNW,291,2.0,3.0,75,0.00,,---,0.00,VWS V14.01,2013-02-13 04:14:00,
2013-02-12 23:19:00,33.4,26.7,29.96,West,268,3.0,3.0,76,0.00,,---,0.00,VWS V14.01,2013-02-13 04:19:00,
2013-02-12 23:24:00,33.9,26.5,29.96,WSW,239,2.0,3.0,74,0.00,,---,0.00,VWS V14.01,2013-02-13 04:24:00,
2013-02-12 23:29:00,34.0,26.6,29.97,SW,224,0.0,3.0,74,0.00,,---,0.00,VWS V14.01,2013-02-13 04:29:00,
2013-02-12 23:34:00,33.8,26.4,29.97,SW,226,0.0,2.0,74,0.00,,---,0.00,VWS V14.01,2013-02-13 04:34:00,
2013-02-12 23:39:00,33.7,26.6,29.97,West,259,1.0,2.0,75,0.00,,---,0.00,VWS V14.01,2013-02-13 04:39:00,
2013-02-12 23:44:00,33.6,26.5,29.97,West,262,0.0,2.0,75,0.00,,---,0.00,VWS V14.01,2013-02-13 04:44:00,
2013-02-12 23:49:00,33.9,26.8,29.97,WSW,253,2.0,4.0,75,0.00,,---,0.00,VWS V14.01,2013-02-13 04:49:00,
2013-02-12 23:54:00,34.1,26.7,29.97,WSW,255,3.0,4.0,74,0.00,,---,0.00,VWS V14.01,2013-02-13 04:54:00,
2013-02-12 23:59:00,34.6,26.5,29.97,West,280,2.0,5.0,72,0.00,,---,0.00,VWS V14.01,2013-02-13 04:59:00,